Regional Weather Roundup
Issued by NWS

Home | Current Version | Previous Version | Graphics & Text | Print | Product List | Glossary On
Versions: 1 2 3 4 5 6 7 8 9 10 11 12 13 14 15 16 17 18 19 20 21 22 23 24 25 26 27 28 29 30 31 32 33 34 35 36 37 38 39 40 41 42 43 44 45 46 47 48 49 50
363
ASUS43 KMKX 240011
RWRWI

WISCONSIN REGIONAL WEATHER ROUNDUP
NATIONAL WEATHER SERVICE MILWAUKEE/SULLIVAN WI
700 PM CDT SAT SEP 23 2017

NOTE: "FAIR" INDICATES FEW OR NO CLOUDS BELOW 12,000 FEET WITH NO
SIGNIFICANT WEATHER AND/OR OBSTRUCTIONS TO VISIBILITY.

WIZ001-002-006>008-014>016-023>028-240100-
NORTHWEST WISCONSIN

CITY           SKY/WX    TMP DP  RH WIND       PRES   REMARKS
SUPERIOR ARPT  CLOUDY    69  67  93 CALM      29.94F
6HR MIN TEMP:  68; 6HR MAX TEMP:  86; 6HR PCP:  0.12;

ASHLAND        MOCLDY    78  70  76 SW5       29.96R HX  80
6HR MIN TEMP:  78; 6HR MAX TEMP:  91;

HAYWARD        CLOUDY    78  69  73 SE3       29.97F HX  80
6HR MIN TEMP:  78; 6HR MAX TEMP:  86;

SIREN          MOCLDY    78  72  80 N5        29.95F HX  81
6HR MIN TEMP:  78; 6HR MAX TEMP:  87;

CUMBERLAND     MOCLDY    77  68  73 CALM      29.97S
RICE LAKE      MOCLDY    79  69  70 SE5       29.98S HX  81
6HR MIN TEMP:  79; 6HR MAX TEMP:  87;

CHETEK         MOCLDY    79  70  74 SE3       29.96S HX  81
6HR MIN TEMP:  79; 6HR MAX TEMP:  87;

LADYSMITH      CLOUDY    80  67  64 SE3       30.00F HX  82
6HR MIN TEMP:  80; 6HR MAX TEMP:  87;

EAU CLAIRE     PTCLDY    82  67  60 SE6       29.94F HX  84
6HR MIN TEMP:  82; 6HR MAX TEMP:  90;

MENOMONIE      CLOUDY    80  69  70 E5        29.94F HX  82
6HR MIN TEMP:  80; 6HR MAX TEMP:  89;

NEW RICHMOND   MOCLDY    78  68  71 CALM      29.95R HX  81
6HR MIN TEMP:  78; 6HR MAX TEMP:  88;

OSCEOLA        CLOUDY    80  70  71 E3        29.96S HX  83
6HR MIN TEMP:  80; 6HR MAX TEMP:  88;

$$

WIZ003>005-009-010-017-018-240100-
NORTH CENTRAL WISCONSIN

CITY           SKY/WX    TMP DP  RH WIND       PRES   REMARKS
MANITOWISH WTR NOT AVBL
ARBOR VITAE    CLOUDY    77  67  71 S3        30.03S
6HR MIN TEMP:  77; 6HR MAX TEMP:  86;

WOODRUFF       CLOUDY    77  67  71 S3        30.03S
6HR MIN TEMP:  77; 6HR MAX TEMP:  86;

RHINELANDER    CLOUDY    78  67  68 S3        30.05S HX  80
6HR MIN TEMP:  78; 6HR MAX TEMP:  86;

EAGLE RIVER    PTCLDY    76  62  61 CALM      30.03S
6HR MIN TEMP:  76; 6HR MAX TEMP:  86;

LAND O LAKES   PTCLDY    77  65  67 CALM      30.05S
6HR MIN TEMP:  77; 6HR MAX TEMP:  87;

PHILLIPS       CLOUDY    77  68  73 CALM      30.01S
6HR MIN TEMP:  77; 6HR MAX TEMP:  85;

TOMAHAWK       CLEAR     71  66  83 CALM      30.04S
6HR MIN TEMP:  71; 6HR MAX TEMP:  86;

MEDFORD        CLOUDY    75  66  74 SE3       30.02S
6HR MIN TEMP:  75; 6HR MAX TEMP:  85;

MERRILL        CLEAR     80  67  63 CALM      30.03S HX  82
6HR MIN TEMP:  80; 6HR MAX TEMP:  88;

$$

WIZ029-030-035-036-043>047-240100-
CENTRAL WISCONSIN

CITY           SKY/WX    TMP DP  RH WIND       PRES   REMARKS
WAUSAU         CLEAR     80  65  59 S7        30.01S HX  82
6HR MIN TEMP:  80; 6HR MAX TEMP:  87; 6HR PCP: TRACE;

MOSINEE        MOCLDY    77  66  69 S6G13     30.04S
MARSHFIELD     CLEAR     78  64  61 S5        30.01F HX  80
6HR MIN TEMP:  78; 6HR MAX TEMP:  89;

STEVENS POINT  CLEAR     76  66  71 CALM      30.03S
6HR MIN TEMP:  76; 6HR MAX TEMP:  88;

WAUPACA        PTCLDY    80  70  70 CALM      30.02S HX  83
6HR MIN TEMP:  80; 6HR MAX TEMP:  92;

WAUTOMA        CLEAR     78  69  73 CALM      30.02S HX  80
6HR MIN TEMP:  78; 6HR MAX TEMP:  91;

WISC RAPIDS    CLEAR     78  69  73 CALM      30.02F HX  80
6HR MIN TEMP:  78; 6HR MAX TEMP:  91;

CAMP DOUGLAS   CLEAR     79  68  69 CALM      30.00S HX  81
6HR MIN TEMP:  79; 6HR MAX TEMP:  91;

$$

WIZ011>013-019>022-031-037>040-048>050-240100-
NORTHEAST WISCONSIN

CITY           SKY/WX    TMP DP  RH WIND       PRES   REMARKS
ANTIGO         CLEAR     74  66  77 S6        30.05F
6HR MIN TEMP:  74; 6HR MAX TEMP:  86;

SHAWANO        CLEAR     80  69  67 CALM      30.02R HX  83
6HR MIN TEMP:  80; 6HR MAX TEMP:  91;

OCONTO         CLOUDY    78  68  70 S5        30.02R HX  80
6HR MIN TEMP:  78; 6HR MAX TEMP:  91;

STURGEON BAY   CLEAR     77  66  68 S7        30.04S
6HR MIN TEMP:  77; 6HR MAX TEMP:  91;

GREEN BAY      CLEAR     80  69  69 S6        30.02S HX  83
6HR MIN TEMP:  80; 6HR MAX TEMP:  91;

MANITOWOC      CLEAR     75  66  73 S6        30.05S
6HR MIN TEMP:  75; 6HR MAX TEMP:  86;

APPLETON       PTCLDY    81  59  47 S6        30.02S HX  81
CLINTONVILLE   CLEAR     79  66  65 CALM      30.02S HX  81
OSHKOSH        CLEAR     80  69  69 SE6       30.02F HX  83
6HR MIN TEMP:  79; 6HR MAX TEMP:  90;

$$

WIZ032>034-041-042-053>061-240100-
SOUTHWEST WISCONSIN

CITY           SKY/WX    TMP DP  RH WIND       PRES   REMARKS
LA CROSSE      CLEAR     87  65  47 SE7       29.95F HX  89
6HR MIN TEMP:  87; 6HR MAX TEMP:  94;

SPARTA         CLEAR     79  67  66 SE3       29.99F HX  81
6HR MIN TEMP:  79; 6HR MAX TEMP:  90;

VIROQUA        CLEAR     81  66  60 SE6       30.02S HX  83
6HR MIN TEMP:  81; 6HR MAX TEMP:  89;

BOSCOBEL       CLEAR     83  66  56 CALM      29.99S HX  85
6HR MIN TEMP:  83; 6HR MAX TEMP:  95;

PRAIRIE DU CHI CLEAR     85  61  44 E5        29.97F HX  85
6HR MIN TEMP:  85; 6HR MAX TEMP:  93;

PLATTEVILLE    CLEAR     83  64  53 SE5       30.02F HX  84
6HR MIN TEMP:  83; 6HR MAX TEMP:  92;

$$

WIZ056-057-062-063-064-067-068-240100-
SOUTH CENTRAL WISCONSIN

CITY           SKY/WX    TMP DP  RH WIND       PRES   REMARKS
REEDSBURG      CLEAR     81  65  58 SE3       30.01S HX  83
6HR MIN TEMP:  81; 6HR MAX TEMP:  93;

BARABOO/DELLS    N/A    N/A N/A N/A SE3       30.02
LONE ROCK      CLEAR     82  64  54 E5        30.00S HX  83
6HR MIN TEMP:  82; 6HR MAX TEMP:  94;

MINERAL POINT  CLEAR     82  61  47 SE3       30.03F HX  83
MADISON        CLEAR     81  66  60 CALM      30.02S HX  83
6HR MIN TEMP:  81; 6HR MAX TEMP:  92;

MIDDLETON      CLEAR     85  61  43 CALM      30.03S HX  86
6HR MIN TEMP:  85; 6HR MAX TEMP:  94;

WATERTOWN      CLEAR     77  69  75 SE3       30.02F
6HR MIN TEMP:  77; 6HR MAX TEMP:  92;

MONROE         CLEAR     84  61  45 S7        30.04S HX  84
JANESVILLE     PTCLDY    88  59  37 CALM      30.02R HX  87
$$

WIZ051-052-058>065-066-070>072-240100-
SOUTHEAST WISCONSIN

CITY           SKY/WX    TMP DP  RH WIND       PRES   REMARKS
MILWAUKEE      PTCLDY    81  66  60 SE6       30.04S HX  83
6HR MIN TEMP:  80; 6HR MAX TEMP:  90;

WAUKESHA       CLEAR     81  63  54 SE8       30.06R HX  82
MILWAUKEE/TIMM CLEAR     82  61  47 SE7       30.05S HX  83
RACINE         CLEAR     79  67  66 S6        30.06S HX  81
6HR MIN TEMP:  79; 6HR MAX TEMP:  89;

BURLINGTON     CLEAR     80  66  61 SE5       30.05R HX  82
6HR MIN TEMP:  80; 6HR MAX TEMP:  94;

KENOSHA        CLEAR     80  65  59 SE8       30.05S HX  82
6HR MIN TEMP:  80; 6HR MAX TEMP:  94;

FOND DU LAC    CLEAR     81  66  60 SE7       30.03S HX  83
6HR MIN TEMP:  79; 6HR MAX TEMP:  90;

SHEBOYGAN      CLEAR     77  68  73 S6        30.05S
6HR MIN TEMP:  77; 6HR MAX TEMP:  91;

WEST BEND        N/A     77  63  61 SE3       30.05S
JUNEAU         CLEAR     80  67  66 E3        30.04F HX  82
6HR MIN TEMP:  80; 6HR MAX TEMP:  89;

$$

LSZ147-162-240100-
LAKE SUPERIOR

STATION/POSITION TIME  TEMP    WIND        PRES    WAVE
                       AIR SEA DIR/SP/G            HT/PER
                 (UTC) (F)     (DEG/KT/KT) (MB)    (FT/S)
W MID LAKE BUOY  2250   71 57   CALM  /  2 1013.1R   1
DEVILS ISLAND    0000   73     320/  9/ 13 1013.7R
SAXON HARBOR     2320   81     190/  3/  7 1013.5
$$

LMZ867-665-643>646-240100-
LAKE MICHIGAN

STATION/POSITION TIME  TEMP    WIND        PRES    WAVE
                       AIR SEA DIR/SP/G            HT/PER
                 (UTC) (F)     (DEG/KT/KT) (MB)    (FT/S)
S GREEN BAY BUOY 0000   76 70  160/  8/



USA.gov is the U.S. government's official web portal to all federal, state and local government web resources and services.